Regional Weather Roundup
Issued by NWS

Home | Current Version | Previous Version | Text Only | Print | Product List | Glossary Off
Versions: 1 2 3 4 5 6 7 8 9 10 11 12 13 14 15 16 17 18 19 20 21 22 23 24 25 26 27 28 29 30 31 32 33 34 35 36 37 38 39 40 41 42 43 44 45 46 47 48 49 50

000
ASUS43 KMKX 260321
RWRWI

WISCONSIN REGIONAL WEATHER ROUNDUP
NATIONAL WEATHER SERVICE MILWAUKEE/SULLIVAN WI
1000 PM CDT SAT APR 25 2015

NOTE: "FAIR" INDICATES FEW OR NO CLOUDS BELOW 12,000 FEET WITH NO
SIGNIFICANT WEATHER AND/OR OBSTRUCTIONS TO VISIBILITY.

WIZ001-002-006>008-014>016-023>028-260400-
NORTHWEST WISCONSIN

CITY           SKY/WX    TMP DP  RH WIND       PRES   REMARKS
SUPERIOR ARPT  CLEAR     36  24  63 NE6       30.06R WCI  31
ASHLAND        CLEAR     31  24  75 NE7       30.05R WCI  24
HAYWARD        CLEAR     36  22  56 NE7       30.00R WCI  30
SIREN          CLEAR     43  20  40 E8        30.00R
CUMBERLAND     CLEAR     41  21  45 N10       29.96R
RICE LAKE      CLEAR     43  23  45 N10       29.98R
CHETEK         CLEAR     47  24  41 N8        29.96R
LADYSMITH      CLEAR     42  19  39 N10       29.97R
EAU CLAIRE     CLEAR     50  26  39 N5        29.93R
MENOMONIE      CLEAR     51  25  36 N12       29.93R
NEW RICHMOND   CLEAR     46  26  46 NE5       29.95R
OSCEOLA        CLEAR     47  24  40 NE10      29.99R
$$

WIZ003>005-009-010-017-018-260400-
NORTH CENTRAL WISCONSIN

CITY           SKY/WX    TMP DP  RH WIND       PRES   REMARKS
MANITOWISH WTR CLEAR     36  24  59 NE5       29.98R WCI  32
ARBOR VITAE    CLEAR     42  19  40 NE6       29.98R
WOODRUFF       CLEAR     42  19  40 NE6       29.98R
RHINELANDER    CLEAR     42  21  43 NE5       29.96R
EAGLE RIVER    CLEAR     37  19  48 N7        29.97R WCI  31
LAND O LAKES   CLEAR     35  18  49 N5        30.00R WCI  31
PHILLIPS       CLEAR     39  24  55 N6        29.97R WCI  34
TOMAHAWK       CLEAR     44  21  40 CALM      29.95R
MEDFORD        CLEAR     42  23  47 E8        29.93R
MERRILL        CLEAR     42  21  43 SE3       29.95R
$$

WIZ029-030-035-036-043>047-260400-
CENTRAL WISCONSIN

CITY           SKY/WX    TMP DP  RH WIND       PRES   REMARKS
WAUSAU         CLEAR     42  19  39 E6        29.93R
MOSINEE        CLEAR     41  18  38 E6        29.95R
MARSHFIELD     CLEAR     43  21  41 SE6       29.92R
STEVENS POINT  CLEAR     37  17  43 NE3       29.95R
WAUPACA        CLEAR     40  17  39 CALM      29.94S
WAUTOMA        CLEAR     40  12  32 N6        29.94R
WISC RAPIDS    CLEAR     42  15  33 CALM      29.95R
CAMP DOUGLAS   CLEAR     38  15  39 CALM      29.92R
$$

WIZ011>013-019>022-031-037>040-048>050-260400-
NORTHEAST WISCONSIN

CITY           SKY/WX    TMP DP  RH WIND       PRES   REMARKS
ANTIGO         CLEAR     39  22  51 CALM      29.95R
SHAWANO        CLEAR     42  25  50 NE6       29.95R
OCONTO         CLEAR     40  23  49 NE7       29.95R
STURGEON BAY   CLEAR     39  21  48 N10       29.97R WCI  32
GREEN BAY      CLEAR     42  28  57 NE10      29.94R
MANITOWOC      CLEAR     40  25  55 N6        29.93R
APPLETON       PTCLDY    37  14  38 N7        29.93R WCI  32
CLINTONVILLE   CLEAR     41  18  38 NE3       29.94S
OSHKOSH        CLEAR     43  22  43 NE9       29.92R
$$

WIZ032>034-041-042-053>061-260400-
SOUTHWEST WISCONSIN

CITY           SKY/WX    TMP DP  RH WIND       PRES   REMARKS
LA CROSSE      CLEAR     46  19  34 CALM      29.91R
SPARTA         CLEAR     35  21  55 CALM      29.93R
VIROQUA        CLEAR     40  20  43 E9        29.90S WCI  34
BOSCOBEL       PTCLDY    41  27  57 CALM      29.91R
PRAIRIE DU CHI CLEAR     40  32  74 CALM      29.90R
PLATTEVILLE    CLEAR     42  34  73 NE5       29.88S
$$

WIZ056-057-062-063-064-067-068-260400-
SOUTH CENTRAL WISCONSIN

CITY           SKY/WX    TMP DP  RH WIND       PRES   REMARKS
REEDSBURG      PTCLDY    43   9  25 NE5       29.91S
BARABOO/DELLS  CLEAR     39  11  30 NE3       29.91R
LONE ROCK      CLEAR     45  21  38 NE8       29.91R
MINERAL POINT  CLEAR     43  28  56 NE6       29.89S
MADISON        FAIR      40  27  59 N8        29.90R WCI  34
MIDDLETON      FAIR      41  28  60 NE7       29.90S
WATERTOWN      CLEAR     40  19  43 NE6       29.89R
MONROE         CLEAR     39  32  75 N8        29.87S WCI  34
JANESVILLE     MOCLDY    43  30  61 NE6       29.88R
$$

WIZ051-052-058>065-066-070>072-260400-
SOUTHEAST WISCONSIN

CITY           SKY/WX    TMP DP  RH WIND       PRES   REMARKS
MILWAUKEE      MOCLDY    41  25  53 N14G22    29.88S
WAUKESHA       PTCLDY    37  19  48 N8        29.90S WCI  31
MILWAUKEE/TIMM MOCLDY    41  21  45 N10       29.89S
RACINE         CLOUDY    40  29  64 N17G23    29.88S WCI  31
BURLINGTON     PTCLDY    39  19  44 N7        29.87S WCI  34
KENOSHA        CLOUDY    41  28  60 N12       29.86F
FOND DU LAC    CLEAR     40  15  36 NE6       29.92R
SHEBOYGAN      CLEAR     39  23  52 N7        29.91R WCI  34
WEST BEND      CLOUDY    39  19  45 N6        29.90S WCI  35
JUNEAU         CLEAR     40  17  39 NE6       29.92R
$$

LSZ147-162-260400-
LAKE SUPERIOR

STATION/POSITION TIME  TEMP    WIND        PRES    WAVE
                       AIR SEA DIR/SP/G            HT/PER
                 (UTC) (F)     (DEG/KT/KT) (MB)    (FT/S)
W MID LAKE BUOY  0250   35 34  350/  6/  8 1019.1R   1/ 4
DEVILS ISLAND    0300   35      20/ 10/ 11 1018.7R
PORT WING        0200   37      40/ 12/ 14 1017.6
SAXON HARBOR     0200   38      CALM  /  5 1016.6
$$

LMZ867-665-643>646-260400-
LAKE MICHIGAN

STATION/POSITION TIME  TEMP    WIND        PRES    WAVE
                       AIR SEA DIR/SP/G            HT/PER
                 (UTC) (F)     (DEG/KT/KT) (MB)    (FT/S)
CHAMBERS ISLAND  0200   42     360/ 16/ 19 1014.2R
NORTHPORT PIER   0200   41     360/ 14/ 16 1014.2R
SISTER BAY       0032   46      40/  4/  9   N/A
KEWAUNEE LAKESHO 0200   41      30/ 11/ 14 1012.3R
SHEBOYGAN LAKESH 0300   41      10/ 17/ 19 1013.3R
PORT WASHINGTON  0240   44      10/  7/ 13 1012.9R
MILWAUKEE LAKESH 0300   43     350/ 19/ 24   N/A
KENOSHA   LAKESH 0300   42     360/ 19/ 22 1010.8F
$$

TC  - TEMPERATURE IN CELSIUS
VSB - VISIBILITY IN STATUTE MILES
WCI - WIND CHILL INDEX
HX  - HEAT INDEX



USA.gov is the U.S. government's official web portal to all federal, state and local government web resources and services.